Simultaneous Nadir Overpasses (SNOs) Predictions

Prediction of SNOs between NPP and TERRA Satellite Orbit:

Table of predicted SNOs for the next 14.0 days since TLE Epoch: 1/10/2015
Index Date (NPP) Time (NPP) Lat,Lon (NPP) SZA (NPP ) Date (TERRA) Time (TERRA) Lat,Lon (TERRA) SZA (TERRA ) Distance(km) Time Diff (sec)
1 01/10/2015 21:59:14 69.18,-150.32 90.98 01/10/2015 22:00:14 69.19,-150.34 90.98 0.95 60
2 01/10/2015 22:49:55 -69.06, 17.16 89.15 01/10/2015 22:49:44 -69.07, 17.15 89.14 1.07 11
3 01/10/2015 23:40:30 68.44,-174.70 90.22 01/10/2015 23:39:20 68.47,-175.96 90.27 51.52 70
4 01/13/2015 14:16:03 69.13, -34.47 90.51 01/13/2015 14:16:45 69.15, -34.51 90.52 2.40 42
5 01/13/2015 15:06:44 -69.02, 133.01 89.63 01/13/2015 15:06:15 -69.04, 132.99 89.60 3.27 29
6 01/16/2015 06:32:53 69.15, 81.29 90.05 01/16/2015 06:33:15 69.14, 81.36 90.03 2.87 22
7 01/16/2015 07:23:33 -68.97,-111.15 90.15 01/16/2015 07:22:46 -68.98,-111.22 90.14 2.69 47
8 01/18/2015 21:59:02 -69.51, 29.25 90.10 01/18/2015 22:00:14 -69.38, 29.90 90.26 29.40 72
9 01/18/2015 22:49:41 69.12,-162.89 89.49 01/18/2015 22:49:44 69.10,-162.82 89.47 3.54 3
10 01/18/2015 23:40:21 -68.94, 4.67 90.71 01/18/2015 23:39:15 -68.94, 4.61 90.70 2.47 66
11 01/21/2015 14:15:45 -69.17, 145.51 91.03 01/21/2015 14:16:47 -69.15, 145.47 91.06 3.10 62
12 01/21/2015 15:06:29 69.04, -47.01 88.84 01/21/2015 15:06:14 69.03, -47.04 88.82 2.40 15
13 01/21/2015 15:57:02 -68.49, 121.06
